Regional Weather Roundup
Issued by NWS Sterling, VA

Home | Current Version | Previous Version | Graphics & Text | Print | Product List | Glossary On
Versions: 1 2 3 4 5 6 7 8 9 10 11 12 13 14 15 16 17 18 19 20 21 22 23 24 25 26 27
000
ASUS41 KLWX 222010
RWRLWX

REGIONAL WEATHER ROUNDUP
NATIONAL WEATHER SERVICE BALTIMORE MD/WASHINGTON DC
400 PM EDT TUE APR 22 2014

Note: "FAIR" indicates few or no clouds below 12,000 feet
with no significant weather and/or obstructions to visibility.
 TC=TEMPERATURE CELSIUS

 * =Non NWS site. Station does not report precipitation (e.g. rain,
    snow, etc.), thunder, or fog.

DCZ001-MDZ009-015-VAZ040>042-051-053>054-222100-
WASHINGTON METRO

CITY           SKY/WX    TMP DP  RH WIND       PRES   REMARKS
WASHINGTON NAT CLOUDY    66  55  67 S9        29.63F
DULLES         CLOUDY    68  56  65 CALM      29.63F
ANDREWS AFB    CLOUDY    68  56  64 W6        29.62F
FT BELVOIR     CLOUDY    68  57  67 CALM      29.63F
QUANTICO       CLOUDY    66  54  65 E6        29.62F
COLLEGE PARK*  CLOUDY    68  57  68 W3        29.62F
LEESBURG*      CLOUDY    70  57  64 W7        29.63F
MANASSAS*      CLOUDY    70  57  64 CALM      29.62F
GAITHERSBURG*  CLOUDY    64  54  68 SW5       29.65F

$$

MDZ006>007-011-014-222100-
BALTIMORE METRO

CITY           SKY/WX    TMP DP  RH WIND       PRES   REMARKS
BWI AIRPORT    LGT RAIN  65  55  70 SW6       29.61F
MD SCIENCE CTR   N/A     68  55  63 MISG      29.62F
ANNAPOLIS      LGT RAIN  63  55  75 N5        29.62F
FORT MEADE*    CLOUDY    63  55  77 SW3       29.64F

$$

MDZ012-015-019>023-222100-
MARYLAND EASTERN SHORE

CITY           SKY/WX    TMP DP  RH WIND       PRES   REMARKS
OCEAN CITY     SUNNY     64  51  62 S8        29.61F
SALISBURY      SUNNY     77  48  35 W9        29.61F
BAY BRIDGE AP* LGT RAIN  63  54  72 NW3       29.63F
CAMBRIDGE*     CLOUDY    77  50  38 W3        29.61F
EASTON*        PTSUNNY   70  52  52 NW9G16    29.66F

$$

MDZ017>025-222100-
SOUTHERN MARYLAND

CITY           SKY/WX    TMP DP  RH WIND       PRES   REMARKS
PATUXENT RIVER CLOUDY    62  52  69 CALM      29.62F
ST INIGOES     PTSUNNY   76  47  35 NW12      29.61S
LEONARDTOWN*   CLOUDY    73  43  33 NW8       29.64F

$$

MDZ003>005-222100-
NORTH CENTRAL MARYLAND

CITY           SKY/WX    TMP DP  RH WIND       PRES   REMARKS
FREDERICK*     PTSUNNY   70  57  64 SW6       29.64F
HAGERSTOWN APT PTSUNNY   69  53  56 W12       29.60F
WESTMINSTER*   CLOUDY    66  57  72 SW7       29.62F

$$

MDZ501>502-222100-
WESTERN MARYLAND

CITY           SKY/WX    TMP DP  RH WIND       PRES   REMARKS
OAKLAND*       PTSUNNY   55  55 100 W8        29.68F
CUMBERLAND*    PTSUNNY   70  50  49 SW6       29.66F

$$

VAZ025>031-222100-
SHENANDOAH VALLEY

CITY           SKY/WX    TMP DP  RH WIND       PRES   REMARKS
WINCHESTER*    CLOUDY    68  52  56 W10       29.62F
STAUNTON*      CLOUDY    71  47  42 W12       29.68F

$$

WVZ021-048>050-054>055-222100-
EASTERN WEST VIRGINIA PANHANDLE

CITY           SKY/WX    TMP DP  RH WIND       PRES   REMARKS
MARTINSBURG    PTSUNNY   70  52  52 W14G22    29.62F
PETERSBURG*    LGT RAIN  69  59  70 W3        29.67F

$$

VAZ036>039-050-222100-
CENTRAL FOOTHILLS

CITY           SKY/WX    TMP DP  RH WIND       PRES   REMARKS
CHARLOTTESVILL CLOUDY    75  50  41 W12       29.63F
CULPEPER*      CLOUDY    77  48  36 W7        29.62F

$$

VAZ055>057-222100-
NORTH AND CENTRAL PIEDMONT

CITY           SKY/WX    TMP DP  RH WIND       PRES   REMARKS
FREDERICKSBRG* CLOUDY    75  52  43 SW9G17    29.61F
STAFFORD*      CLOUDY    74  52  45 SW6       29.65F

$$

NCZ024-NYZ072-PAZ021-071-VAZ022-071-222100-
OTHER REGIONAL OBSERVATIONS

CITY           SKY/WX    TMP DP  RH WIND       PRES   REMARKS
NEW YORK CITY  PTSUNNY   69  45  41 S6        29.57F
PHILADELPHIA   LGT RAIN  73  47  39 W22G28    29.59F
PITTSBURGH     CLOUDY    63  53  70 NW18      29.64F
ROANOKE        CLOUDY    72  50  45 W15G28    29.72F
RICHMOND       CLOUDY    75  50  41 N9        29.63S
RALEIGH        PTSUNNY   82  48  30 W13G25    29.68F

$$

ANZ530>537-222100-
MARINE OBSERVATIONS

STATION/POSITION TIME  TEMP    WIND        PRES
                       AIR SEA DIR/SP/G
                 (UTC) (F)     (DEG/KT/KT) (MB)
THOMAS PT LIGHT  2000   64 54  240/  2/  3 1003.6F
BALT KEY BRIDGE  2000   63     240/  4/  5 1003.2F
COVE POINT       2000   59     150/  5/  6 1002.9F
SOLOMONS ISLAND  2000      57                N/A
PINEY POINT      2000          330/ 16/ 18   N/A

$$




USA.gov is the U.S. government's official web portal to all federal, state and local government web resources and services.